Climatologie pour Saint-Brevin les Pins
Jour • Résumé pour mars 20, 2017 Système :  Métrique    Anglais   Mixte
« - 1 jour
+ 1 jour »
Jour Semaine Mois Année Personnalisé
  Maximum : Minimum : Moyenne :
Température sous abri : 12.9 °C 9.6 °C 11.2 °C
Point de rosée : 10.7 °C 8.0 °C 9.6 °C
Humidité : 97 % 82 % 90 %
Vitesse du vent : 24.1 km/h 0.0 km/h 9.1 km/h
Rafale : 37.0 km/h - -
Direction :- - WSW
Pression : 1017.2 hPa 1012.8 hPa -
Précipitations : 0.5 mm    
Historical Graphs
 
 
Tableau de données pour mars 20, 2017
Heure Tempé Pt rosée Pression Vent Vitesse Rafale Humidité Taux pluie (/hr) Soleil
00:00 10.7 °C 9.1 °C 1017.2 hPa West 8.0 km/h 14.5 km/h 90 % 0.0 mm 0 W/m2
00:10 10.7 °C 9.3 °C 1017.2 hPa West 4.8 km/h 16.1 km/h 91 % 0.0 mm 0 W/m2
00:15 10.6 °C 9.2 °C 1017.2 hPa West 6.4 km/h 14.5 km/h 91 % 0.0 mm 0 W/m2
00:20 10.6 °C 9.2 °C 1017.2 hPa West 6.4 km/h 12.9 km/h 91 % 0.0 mm 0 W/m2
00:25 10.7 °C 9.3 °C 1017.2 hPa Calm   12.9 km/h 91 % 0.0 mm 0 W/m2
00:30 10.7 °C 9.3 °C 1017.2 hPa NW 12.9 km/h 16.1 km/h 91 % 0.0 mm 0 W/m2
00:35 10.7 °C 9.3 °C 1016.8 hPa Calm   16.1 km/h 91 % 0.0 mm 0 W/m2
00:40 10.7 °C 9.3 °C 1017.2 hPa WSW 11.3 km/h 17.7 km/h 91 % 0.0 mm 0 W/m2
00:45 10.7 °C 9.3 °C 1017.2 hPa WSW 9.7 km/h 17.7 km/h 91 % 0.0 mm 0 W/m2
00:50 10.7 °C 9.3 °C 1016.8 hPa WSW 9.7 km/h 16.1 km/h 91 % 0.0 mm 0 W/m2
00:55 10.7 °C 9.3 °C 1016.8 hPa WSW 4.8 km/h 16.1 km/h 91 % 0.0 mm 0 W/m2
01:00 10.7 °C 9.3 °C 1016.8 hPa WSW 6.4 km/h 16.1 km/h 91 % 0.0 mm 0 W/m2
01:05 10.7 °C 9.1 °C 1016.8 hPa SW 8.0 km/h 17.7 km/h 90 % 0.0 mm 0 W/m2
01:10 10.7 °C 9.1 °C 1016.8 hPa WSW 9.7 km/h 19.3 km/h 90 % 0.0 mm 0 W/m2
01:15 10.7 °C 9.1 °C 1016.8 hPa SW 6.4 km/h 19.3 km/h 90 % 0.0 mm 0 W/m2
01:20 10.7 °C 9.0 °C 1016.5 hPa SW 4.8 km/h 16.1 km/h 89 % 0.0 mm 0 W/m2
01:25 10.7 °C 9.0 °C 1016.5 hPa WSW 11.3 km/h 16.1 km/h 89 % 0.0 mm 0 W/m2
01:30 10.7 °C 9.0 °C 1016.5 hPa SW 6.4 km/h 16.1 km/h 89 % 0.0 mm 0 W/m2
01:35 10.7 °C 8.8 °C 1016.5 hPa WSW 3.2 km/h 14.5 km/h 88 % 0.0 mm 0 W/m2
01:40 10.7 °C 8.8 °C 1016.5 hPa West 4.8 km/h 14.5 km/h 88 % 0.0 mm 0 W/m2
01:45 10.8 °C 8.9 °C 1016.5 hPa WSW 6.4 km/h 14.5 km/h 88 % 0.0 mm 0 W/m2
01:50 10.7 °C 8.8 °C 1016.5 hPa WSW 11.3 km/h 16.1 km/h 88 % 0.0 mm 0 W/m2
01:55 10.8 °C 8.9 °C 1016.1 hPa WNW 4.8 km/h 16.1 km/h 88 % 0.0 mm 0 W/m2
02:00 10.8 °C 8.9 °C 1016.1 hPa West 4.8 km/h 16.1 km/h 88 % 0.0 mm 0 W/m2
02:05 10.8 °C 8.9 °C 1016.1 hPa SW 3.2 km/h 14.5 km/h 88 % 0.0 mm 0 W/m2
02:10 10.7 °C 9.0 °C 1016.1 hPa WSW 11.3 km/h 12.9 km/h 89 % 0.0 mm 0 W/m2
02:15 10.7 °C 9.0 °C 1016.1 hPa SW 3.2 km/h 12.9 km/h 89 % 0.0 mm 0 W/m2
02:20 10.7 °C 8.9 °C 1016.1 hPa WSW 3.2 km/h 16.1 km/h 89 % 0.0 mm 0 W/m2
02:25 10.7 °C 8.9 °C 1016.1 hPa WSW 9.7 km/h 19.3 km/h 89 % 0.0 mm 0 W/m2
02:30 10.7 °C 8.9 °C 1016.1 hPa SSW 3.2 km/h 19.3 km/h 89 % 0.0 mm 0 W/m2
02:35 10.7 °C 8.9 °C 1016.1 hPa SW 9.7 km/h 17.7 km/h 89 % 0.0 mm 0 W/m2
02:40 10.7 °C 8.9 °C 1015.8 hPa SSW 8.0 km/h 19.3 km/h 89 % 0.0 mm 0 W/m2
02:45 10.7 °C 8.9 °C 1015.8 hPa WSW 12.9 km/h 19.3 km/h 89 % 0.0 mm 0 W/m2
02:50 10.7 °C 9.1 °C 1015.8 hPa WSW 6.4 km/h 16.1 km/h 90 % 0.0 mm 0 W/m2
02:55 10.7 °C 9.1 °C 1015.8 hPa WSW 14.5 km/h 19.3 km/h 90 % 0.0 mm 0 W/m2
03:00 10.7 °C 9.1 °C 1015.8 hPa WSW 9.7 km/h 19.3 km/h 90 % 0.0 mm 0 W/m2
03:05 10.7 °C 9.1 °C 1015.8 hPa WSW 14.5 km/h 16.1 km/h 90 % 0.0 mm 0 W/m2
03:10 10.7 °C 9.1 °C 1015.8 hPa WSW 6.4 km/h 19.3 km/h 90 % 0.0 mm 0 W/m2
03:15 10.7 °C 9.1 °C 1015.8 hPa WSW 12.9 km/h 19.3 km/h 90 % 0.0 mm 0 W/m2
03:20 10.7 °C 9.1 °C 1015.8 hPa SSW 9.7 km/h 19.3 km/h 90 % 0.0 mm 0 W/m2
03:25 10.7 °C 9.1 °C 1015.5 hPa West 14.5 km/h 17.7 km/h 90 % 0.0 mm 0 W/m2
03:30 10.7 °C 9.1 °C 1015.5 hPa West 4.8 km/h 17.7 km/h 90 % 0.0 mm 0 W/m2
03:35 10.7 °C 9.1 °C 1015.5 hPa WSW 8.0 km/h 17.7 km/h 90 % 0.0 mm 0 W/m2
03:45 10.7 °C 9.3 °C 1015.5 hPa WSW 6.4 km/h 17.7 km/h 91 % 0.0 mm 0 W/m2
03:50 10.7 °C 9.3 °C 1015.5 hPa WSW 4.8 km/h 17.7 km/h 91 % 0.0 mm 0 W/m2
03:55 10.7 °C 9.1 °C 1015.1 hPa SW 11.3 km/h 17.7 km/h 90 % 0.0 mm 0 W/m2
04:00 10.7 °C 9.1 °C 1015.1 hPa WNW 14.5 km/h 17.7 km/h 90 % 0.0 mm 0 W/m2
04:15 10.7 °C 9.1 °C 1015.1 hPa WSW 3.2 km/h 17.7 km/h 90 % 0.0 mm 0 W/m2
04:20 10.7 °C 9.1 °C 1015.1 hPa WSW 6.4 km/h 19.3 km/h 90 % 0.0 mm 0 W/m2
04:25 10.7 °C 9.1 °C 1015.1 hPa WSW 12.9 km/h 19.3 km/h 90 % 0.0 mm 0 W/m2
04:30 10.7 °C 9.0 °C 1015.1 hPa WSW 4.8 km/h 19.3 km/h 89 % 0.0 mm 0 W/m2
04:35 10.7 °C 9.1 °C 1015.1 hPa West 6.4 km/h 17.7 km/h 90 % 0.0 mm 0 W/m2
04:40 10.7 °C 9.1 °C 1015.1 hPa West 11.3 km/h 17.7 km/h 90 % 0.0 mm 0 W/m2
04:45 10.7 °C 9.3 °C 1015.1 hPa WSW 11.3 km/h 19.3 km/h 91 % 0.0 mm 0 W/m2
04:50 10.6 °C 9.1 °C 1015.1 hPa West 6.4 km/h 19.3 km/h 91 % 0.0 mm 0 W/m2
04:55 10.6 °C 9.1 °C 1015.1 hPa West 4.8 km/h 17.7 km/h 91 % 0.0 mm 0 W/m2
05:00 10.6 °C 9.2 °C 1014.8 hPa West 8.0 km/h 19.3 km/h 91 % 0.0 mm 0 W/m2
05:05 10.6 °C 9.0 °C 1014.8 hPa WSW 6.4 km/h 19.3 km/h 90 % 0.0 mm 0 W/m2
05:10 10.6 °C 9.0 °C 1014.8 hPa West 11.3 km/h 16.1 km/h 90 % 0.0 mm 0 W/m2
05:15 10.6 °C 8.8 °C 1014.8 hPa Calm   16.1 km/h 89 % 0.0 mm 0 W/m2
05:20 10.6 °C 8.7 °C 1014.8 hPa West 3.2 km/h 14.5 km/h 88 % 0.0 mm 0 W/m2
05:25 10.6 °C 8.7 °C 1014.8 hPa West 12.9 km/h 17.7 km/h 88 % 0.0 mm 0 W/m2
05:30 10.6 °C 8.5 °C 1014.8 hPa West 11.3 km/h 19.3 km/h 87 % 0.0 mm 0 W/m2
05:35 10.6 °C 8.0 °C 1014.8 hPa NW 6.4 km/h 20.9 km/h 84 % 0.0 mm 0 W/m2
05:40 10.6 °C 8.2 °C 1014.8 hPa West 17.7 km/h 22.5 km/h 85 % 0.0 mm 0 W/m2
05:45 10.4 °C 8.2 °C 1014.8 hPa NW 4.8 km/h 22.5 km/h 86 % 0.0 mm 0 W/m2
05:50 10.3 °C 8.3 °C 1014.8 hPa West 6.4 km/h 17.7 km/h 87 % 0.0 mm 0 W/m2
05:55 10.4 °C 8.3 °C 1014.8 hPa WSW 4.8 km/h 16.1 km/h 87 % 0.0 mm 0 W/m2
06:00 10.4 °C 8.5 °C 1014.8 hPa WSW 8.0 km/h 16.1 km/h 88 % 0.0 mm 0 W/m2
06:05 10.5 °C 8.6 °C 1014.8 hPa West 3.2 km/h 14.5 km/h 88 % 0.0 mm 0 W/m2
06:10 10.5 °C 8.4 °C 1014.8 hPa WSW 3.2 km/h 14.5 km/h 87 % 0.0 mm 0 W/m2
06:15 10.6 °C 8.5 °C 1014.8 hPa WNW 3.2 km/h 16.1 km/h 87 % 0.0 mm 0 W/m2
06:20 10.6 °C 8.5 °C 1014.8 hPa West 8.0 km/h 16.1 km/h 87 % 0.0 mm 0 W/m2
06:25 10.6 °C 8.5 °C 1014.8 hPa SW 12.9 km/h 17.7 km/h 87 % 0.0 mm 0 W/m2
06:30 10.5 °C 8.4 °C 1014.8 hPa WSW 6.4 km/h 19.3 km/h 87 % 0.0 mm 0 W/m2
06:35 10.3 °C 8.4 °C 1014.8 hPa WSW 14.5 km/h 19.3 km/h 88 % 0.0 mm 0 W/m2
06:40 10.2 °C 8.5 °C 1014.8 hPa WNW 6.4 km/h 19.3 km/h 89 % 0.0 mm 0 W/m2
06:45 10.2 °C 8.4 °C 1014.8 hPa WSW 6.4 km/h 19.3 km/h 89 % 0.0 mm 0 W/m2
06:50 10.2 °C 8.6 °C 1014.8 hPa West 4.8 km/h 20.9 km/h 90 % 0.0 mm 0 W/m2
06:55 10.1 °C 8.5 °C 1014.8 hPa SSW 12.9 km/h 20.9 km/h 90 % 0.0 mm 0 W/m2
07:00 10.2 °C 8.6 °C 1014.8 hPa West 3.2 km/h 14.5 km/h 90 % 0.0 mm 0 W/m2
07:05 10.2 °C 8.6 °C 1014.8 hPa SW 4.8 km/h 16.1 km/h 90 % 0.0 mm 0 W/m2
07:10 10.2 °C 8.6 °C 1014.8 hPa West 8.0 km/h 16.1 km/h 90 % 0.0 mm 0 W/m2
07:15 10.2 °C 8.7 °C 1014.8 hPa WNW 9.7 km/h 16.1 km/h 90 % 0.0 mm 0 W/m2
07:25 9.9 °C 8.7 °C 1014.8 hPa West 6.4 km/h 22.5 km/h 92 % 0.0 mm 5 W/m2
07:30 9.7 °C 8.6 °C 1014.8 hPa SSW 4.8 km/h 17.7 km/h 93 % 0.3 mm 19 W/m2
07:40 9.6 °C 8.6 °C 1014.8 hPa West 9.7 km/h 19.3 km/h 94 % 0.3 mm 58 W/m2
07:45 9.6 °C 8.7 °C 1014.8 hPa WSW 4.8 km/h 19.3 km/h 94 % 0.3 mm 65 W/m2
07:50 9.7 °C 9.0 °C 1014.8 hPa WSW 20.9 km/h 20.9 km/h 95 % 0.3 mm 53 W/m2
07:55 9.8 °C 8.9 °C 1014.8 hPa WSW 17.7 km/h 27.4 km/h 94 % 0.3 mm 37 W/m2
08:00 9.8 °C 9.0 °C 1014.8 hPa SW 20.9 km/h 27.4 km/h 95 % 0.3 mm 51 W/m2
08:05 9.7 °C 8.8 °C 1014.8 hPa WSW 11.3 km/h 22.5 km/h 94 % 0.3 mm 86 W/m2
08:10 9.7 °C 8.7 °C 1014.8 hPa SW 4.8 km/h 22.5 km/h 94 % 0.3 mm 62 W/m2
08:15 9.6 °C 8.7 °C 1014.8 hPa WSW 8.0 km/h 19.3 km/h 94 % 0.3 mm 81 W/m2
08:20 9.7 °C 8.6 °C 1014.8 hPa SSW 6.4 km/h 12.9 km/h 93 % 0.3 mm 102 W/m2
08:25 9.7 °C 8.6 °C 1014.8 hPa WSW 6.4 km/h 12.9 km/h 93 % 0.3 mm 105 W/m2
08:30 9.8 °C 8.8 °C 1014.4 hPa WSW 11.3 km/h 14.5 km/h 93 % 0.0 mm 111 W/m2
08:35 10.0 °C 8.9 °C 1014.4 hPa SW 3.2 km/h 14.5 km/h 93 % 0.0 mm 97 W/m2
08:40 10.1 °C 9.0 °C 1014.4 hPa SW 4.8 km/h 14.5 km/h 93 % 0.0 mm 84 W/m2
08:45 10.1 °C 8.8 °C 1014.4 hPa WSW 4.8 km/h 14.5 km/h 92 % 0.0 mm 74 W/m2
08:50 10.1 °C 8.9 °C 1014.4 hPa WSW 11.3 km/h 16.1 km/h 92 % 0.0 mm 135 W/m2
08:55 10.3 °C 9.1 °C 1014.4 hPa WSW 12.9 km/h 17.7 km/h 92 % 0.0 mm 149 W/m2
09:00 10.5 °C 9.3 °C 1014.4 hPa SW 4.8 km/h 19.3 km/h 92 % 0.0 mm 183 W/m2
09:05 10.7 °C 9.5 °C 1014.4 hPa SW 1.6 km/h 19.3 km/h 92 % 0.0 mm 197 W/m2
09:10 10.8 °C 9.4 °C 1014.4 hPa SW 3.2 km/h 19.3 km/h 91 % 0.0 mm 160 W/m2
09:15 10.8 °C 9.4 °C 1014.4 hPa WSW 8.0 km/h 22.5 km/h 91 % 0.0 mm 148 W/m2
09:20 10.8 °C 9.4 °C 1014.4 hPa WSW 6.4 km/h 22.5 km/h 91 % 0.0 mm 137 W/m2
09:25 10.8 °C 9.4 °C 1014.4 hPa WSW 8.0 km/h 19.3 km/h 91 % 0.0 mm 155 W/m2
09:30 10.8 °C 9.4 °C 1014.1 hPa SW 4.8 km/h 19.3 km/h 91 % 0.0 mm 155 W/m2
09:35 10.8 °C 9.3 °C 1014.1 hPa SW 3.2 km/h 19.3 km/h 90 % 0.0 mm 156 W/m2
09:40 10.9 °C 9.3 °C 1014.1 hPa West 9.7 km/h 16.1 km/h 90 % 0.0 mm 206 W/m2
09:45 10.9 °C 9.4 °C 1014.4 hPa WSW 9.7 km/h 16.1 km/h 90 % 0.0 mm 214 W/m2
09:50 11.1 °C 9.5 °C 1014.4 hPa WSW 4.8 km/h 19.3 km/h 90 % 0.0 mm 253 W/m2
09:55 11.1 °C 9.5 °C 1014.4 hPa West 4.8 km/h 19.3 km/h 90 % 0.0 mm 214 W/m2
10:00 11.1 °C 9.4 °C 1014.4 hPa WSW 14.5 km/h 19.3 km/h 89 % 0.0 mm 232 W/m2
10:05 11.1 °C 9.4 °C 1014.4 hPa SW 4.8 km/h 19.3 km/h 89 % 0.0 mm 197 W/m2
10:10 11.1 °C 9.4 °C 1014.4 hPa SW 11.3 km/h 22.5 km/h 89 % 0.0 mm 232 W/m2
10:15 11.2 °C 9.5 °C 1014.4 hPa SW 11.3 km/h 22.5 km/h 89 % 0.0 mm 220 W/m2
10:20 11.2 °C 9.3 °C 1014.4 hPa SW 9.7 km/h 22.5 km/h 88 % 0.0 mm 271 W/m2
10:25 11.3 °C 9.4 °C 1014.4 hPa WSW 9.7 km/h 22.5 km/h 88 % 0.0 mm 262 W/m2
10:30 11.4 °C 9.4 °C 1014.4 hPa WSW 12.9 km/h 22.5 km/h 87 % 0.0 mm 171 W/m2
10:35 11.4 °C 9.3 °C 1014.4 hPa SW 20.9 km/h 22.5 km/h 87 % 0.0 mm 165 W/m2
10:40 11.3 °C 9.2 °C 1014.4 hPa SSW 17.7 km/h 24.1 km/h 87 % 0.0 mm 188 W/m2
10:45 11.3 °C 9.4 °C 1014.4 hPa SSW 8.0 km/h 24.1 km/h 88 % 0.0 mm 221 W/m2
10:50 11.3 °C 9.4 °C 1014.4 hPa SW 11.3 km/h 20.9 km/h 88 % 0.0 mm 225 W/m2
10:55 11.4 °C 9.5 °C 1014.4 hPa SW 12.9 km/h 20.9 km/h 88 % 0.0 mm 223 W/m2
11:00 11.4 °C 9.5 °C 1014.4 hPa SW 14.5 km/h 20.9 km/h 88 % 0.0 mm 216 W/m2
11:05 11.6 °C 9.6 °C 1014.4 hPa South 6.4 km/h 20.9 km/h 88 % 0.0 mm 250 W/m2
11:10 11.6 °C 9.6 °C 1014.4 hPa WSW 4.8 km/h 19.3 km/h 88 % 0.0 mm 264 W/m2
11:15 11.6 °C 9.7 °C 1014.4 hPa WSW 8.0 km/h 20.9 km/h 88 % 0.0 mm 346 W/m2
11:20 12.1 °C 10.1 °C 1014.4 hPa SSW 8.0 km/h 24.1 km/h 88 % 0.0 mm 464 W/m2
11:25 12.1 °C 10.2 °C 1014.8 hPa WSW 12.9 km/h 24.1 km/h 88 % 0.0 mm 431 W/m2
11:30 12.2 °C 9.9 °C 1014.4 hPa SW 9.7 km/h 25.7 km/h 86 % 0.0 mm 269 W/m2
11:35 11.9 °C 9.6 °C 1014.4 hPa WSW 12.9 km/h 25.7 km/h 86 % 0.0 mm 227 W/m2
11:40 11.8 °C 9.5 °C 1014.4 hPa WSW 14.5 km/h 27.4 km/h 86 % 0.0 mm 197 W/m2
11:45 11.7 °C 9.6 °C 1014.4 hPa WSW 16.1 km/h 27.4 km/h 87 % 0.0 mm 243 W/m2
11:50 11.7 °C 9.6 °C 1014.4 hPa WSW 16.1 km/h 22.5 km/h 87 % 0.0 mm 311 W/m2
11:55 12.0 °C 9.9 °C 1014.8 hPa SW 8.0 km/h 22.5 km/h 87 % 0.0 mm 292 W/m2
12:00 11.9 °C 9.7 °C 1014.4 hPa WSW 11.3 km/h 22.5 km/h 86 % 0.0 mm 246 W/m2
12:05 12.2 °C 10.1 °C 1014.4 hPa SSW 6.4 km/h 22.5 km/h 87 % 0.0 mm 369 W/m2
12:10 12.4 °C 10.1 °C 1014.4 hPa SW 14.5 km/h 22.5 km/h 86 % 0.0 mm 496 W/m2
12:15 12.6 °C 10.3 °C 1014.4 hPa WSW 9.7 km/h 20.9 km/h 86 % 0.0 mm 504 W/m2
12:25 12.7 °C 9.9 °C 1014.4 hPa WSW 9.7 km/h 24.1 km/h 83 % 0.0 mm 408 W/m2
12:30 12.7 °C 10.2 °C 1014.4 hPa South 9.7 km/h 22.5 km/h 85 % 0.0 mm 469 W/m2
12:35 12.8 °C 10.1 °C 1014.4 hPa WSW 6.4 km/h 20.9 km/h 84 % 0.0 mm 392 W/m2
12:40 12.6 °C 9.8 °C 1014.4 hPa WSW 8.0 km/h 24.1 km/h 83 % 0.0 mm 283 W/m2
12:45 12.4 °C 9.8 °C 1014.4 hPa SW 16.1 km/h 24.1 km/h 84 % 0.0 mm 253 W/m2
12:50 12.3 °C 9.8 °C 1014.4 hPa WNW 12.9 km/h 25.7 km/h 85 % 0.0 mm 262 W/m2
12:55 12.3 °C 9.9 °C 1014.4 hPa SW 11.3 km/h 25.7 km/h 85 % 0.0 mm 200 W/m2
13:00 12.3 °C 9.9 °C 1014.4 hPa West 9.7 km/h 25.7 km/h 85 % 0.0 mm 348 W/m2
13:05 12.3 °C 9.7 °C 1014.4 hPa West 16.1 km/h 25.7 km/h 84 % 0.0 mm 306 W/m2
13:10 12.2 °C 9.5 °C 1014.1 hPa West 9.7 km/h 29.0 km/h 84 % 0.0 mm 316 W/m2
13:15 12.4 °C 9.9 °C 1014.1 hPa SW 11.3 km/h 29.0 km/h 85 % 0.0 mm 417 W/m2
13:20 12.8 °C 10.1 °C 1014.1 hPa WSW 12.9 km/h 22.5 km/h 84 % 0.0 mm 352 W/m2
13:25 12.6 °C 9.9 °C 1014.1 hPa WSW 11.3 km/h 25.7 km/h 84 % 0.0 mm 260 W/m2
13:30 12.4 °C 9.9 °C 1014.1 hPa SW 14.5 km/h 27.4 km/h 85 % 0.0 mm 230 W/m2
13:40 12.2 °C 9.7 °C 1014.1 hPa SW 6.4 km/h 29.0 km/h 85 % 0.0 mm 311 W/m2
13:45 12.4 °C 9.8 °C 1014.1 hPa SW 16.1 km/h 30.6 km/h 84 % 0.0 mm 315 W/m2
13:50 12.3 °C 9.7 °C 1014.1 hPa WNW 16.1 km/h 33.8 km/h 84 % 0.0 mm 387 W/m2
13:55 12.3 °C 9.7 °C 1014.1 hPa WSW 12.9 km/h 37.0 km/h 84 % 0.0 mm 381 W/m2
14:00 12.1 °C 9.7 °C 1014.1 hPa West 19.3 km/h 37.0 km/h 85 % 0.0 mm 264 W/m2
14:10 12.1 °C 9.8 °C 1014.1 hPa WSW 14.5 km/h 29.0 km/h 86 % 0.0 mm 299 W/m2
14:15 11.9 °C 9.7 °C 1014.1 hPa SSW 14.5 km/h 25.7 km/h 86 % 0.0 mm 188 W/m2
14:20 11.8 °C 9.5 °C 1014.1 hPa South 6.4 km/h 25.7 km/h 86 % 0.0 mm 188 W/m2
14:25 11.7 °C 9.6 °C 1014.1 hPa SSW 6.4 km/h 24.1 km/h 87 % 0.0 mm 320 W/m2
14:30 11.8 °C 9.6 °C 1014.1 hPa WSW 24.1 km/h 24.1 km/h 86 % 0.0 mm 269 W/m2
14:35 11.9 °C 9.7 °C 1014.1 hPa SW 6.4 km/h 25.7 km/h 86 % 0.0 mm 278 W/m2
14:40 12.0 °C 9.7 °C 1014.1 hPa WSW 16.1 km/h 27.4 km/h 86 % 0.0 mm 251 W/m2
14:45 12.0 °C 9.7 °C 1013.8 hPa WSW 19.3 km/h 27.4 km/h 86 % 0.0 mm 227 W/m2
14:50 12.1 °C 9.6 °C 1013.8 hPa WSW 9.7 km/h 27.4 km/h 85 % 0.0 mm 353 W/m2
14:55 12.3 °C 9.9 °C 1013.8 hPa West 4.8 km/h 27.4 km/h 85 % 0.0 mm 352 W/m2
15:00 12.7 °C 10.3 °C 1013.8 hPa West 12.9 km/h 25.7 km/h 85 % 0.0 mm 399 W/m2
15:05 12.9 °C 10.1 °C 1013.8 hPa SW 14.5 km/h 17.7 km/h 83 % 0.0 mm 411 W/m2
15:10 12.9 °C 10.1 °C 1013.8 hPa SW 9.7 km/h 24.1 km/h 83 % 0.0 mm 276 W/m2
15:15 12.7 °C 10.1 °C 1013.8 hPa WSW 6.4 km/h 29.0 km/h 84 % 0.0 mm 297 W/m2
15:20 12.6 °C 9.6 °C 1013.8 hPa WNW 8.0 km/h 29.0 km/h 82 % 0.0 mm 278 W/m2
15:25 12.6 °C 9.7 °C 1013.8 hPa West 6.4 km/h 27.4 km/h 83 % 0.0 mm 223 W/m2
15:30 12.4 °C 9.6 °C 1013.4 hPa WSW 8.0 km/h 24.1 km/h 83 % 0.0 mm 269 W/m2
15:35 12.6 °C 9.9 °C 1013.4 hPa WSW 8.0 km/h 24.1 km/h 84 % 0.0 mm 251 W/m2
15:40 12.5 °C 9.9 °C 1013.4 hPa WSW 17.7 km/h 22.5 km/h 84 % 0.0 mm 264 W/m2
15:45 12.4 °C 9.9 °C 1013.4 hPa WSW 8.0 km/h 22.5 km/h 85 % 0.0 mm 251 W/m2
15:50 12.4 °C 10.2 °C 1013.4 hPa WSW 16.1 km/h 20.9 km/h 86 % 0.0 mm 236 W/m2
15:55 12.3 °C 9.9 °C 1013.4 hPa WSW 8.0 km/h 20.9 km/h 85 % 0.0 mm 225 W/m2
16:00 12.3 °C 10.0 °C 1013.4 hPa SW 14.5 km/h 20.9 km/h 86 % 0.0 mm 218 W/m2
16:10 12.3 °C 10.0 °C 1013.4 hPa SSW 4.8 km/h 22.5 km/h 86 % 0.0 mm 221 W/m2
16:15 12.1 °C 10.0 °C 1013.4 hPa WSW 9.7 km/h 22.5 km/h 87 % 0.0 mm 199 W/m2
16:20 12.1 °C 10.1 °C 1013.4 hPa SW 8.0 km/h 22.5 km/h 88 % 0.0 mm 160 W/m2
16:25 11.9 °C 10.0 °C 1013.1 hPa WSW 4.8 km/h 20.9 km/h 88 % 0.0 mm 169 W/m2
16:30 11.9 °C 10.0 °C 1013.1 hPa SW 3.2 km/h 20.9 km/h 88 % 0.0 mm 162 W/m2
16:40 11.9 °C 10.0 °C 1013.1 hPa West 19.3 km/h 27.4 km/h 88 % 0.0 mm 162 W/m2
16:45 11.9 °C 10.0 °C 1013.1 hPa WSW 3.2 km/h 25.7 km/h 88 % 0.0 mm 113 W/m2
16:50 11.8 °C 10.0 °C 1013.1 hPa SW 6.4 km/h 25.7 km/h 89 % 0.0 mm 125 W/m2
16:55 11.8 °C 10.0 °C 1013.1 hPa SW 14.5 km/h 22.5 km/h 89 % 0.0 mm 149 W/m2
17:00 11.8 °C 10.0 °C 1013.1 hPa SSW 3.2 km/h 25.7 km/h 89 % 0.0 mm 123 W/m2
17:05 11.7 °C 9.9 °C 1013.1 hPa South 4.8 km/h 27.4 km/h 89 % 0.0 mm 118 W/m2
17:10 11.6 °C 9.9 °C 1013.1 hPa SSW 6.4 km/h 27.4 km/h 89 % 0.0 mm 132 W/m2
17:20 11.7 °C 10.0 °C 1013.1 hPa WSW 8.0 km/h 20.9 km/h 89 % 0.0 mm 128 W/m2
17:25 11.7 °C 10.0 °C 1013.1 hPa West 8.0 km/h 22.5 km/h 89 % 0.0 mm 100 W/m2
17:30 11.6 °C 9.9 °C 1013.1 hPa SW 6.4 km/h 22.5 km/h 89 % 0.0 mm 58 W/m2
17:35 11.5 °C 9.9 °C 1013.1 hPa SW 4.8 km/h 30.6 km/h 90 % 0.0 mm 67 W/m2
17:40 11.5 °C 9.9 °C 1013.1 hPa WSW 8.0 km/h 30.6 km/h 90 % 0.0 mm 56 W/m2
17:45 11.4 °C 9.9 °C 1013.4 hPa WSW 11.3 km/h 24.1 km/h 90 % 0.0 mm 65 W/m2
17:50 11.4 °C 9.9 °C 1013.4 hPa SSW 8.0 km/h 24.1 km/h 90 % 0.0 mm 62 W/m2
17:55 11.5 °C 9.9 °C 1013.1 hPa WSW 9.7 km/h 24.1 km/h 90 % 0.0 mm 69 W/m2
18:00 11.5 °C 9.9 °C 1013.1 hPa SW 4.8 km/h 27.4 km/h 90 % 0.0 mm 63 W/m2
18:10 11.4 °C 10.0 °C 1013.1 hPa SW 20.9 km/h 27.4 km/h 91 % 0.0 mm 46 W/m2
18:15 11.4 °C 10.0 °C 1013.1 hPa WSW 4.8 km/h 27.4 km/h 91 % 0.0 mm 44 W/m2
18:20 11.4 °C 10.0 °C 1013.1 hPa WSW 14.5 km/h 25.7 km/h 91 % 0.0 mm 35 W/m2
18:25 11.3 °C 9.9 °C 1013.1 hPa West 11.3 km/h 25.7 km/h 91 % 0.0 mm 21 W/m2
18:30 11.3 °C 9.9 °C 1013.1 hPa WSW 8.0 km/h 24.1 km/h 91 % 0.0 mm 23 W/m2
18:40 11.3 °C 9.9 °C 1013.1 hPa WSW 4.8 km/h 30.6 km/h 91 % 0.0 mm 18 W/m2
18:45 11.3 °C 9.9 °C 1013.1 hPa South 4.8 km/h 30.6 km/h 91 % 0.0 mm 11 W/m2
18:50 11.3 °C 9.9 °C 1013.1 hPa WSW 11.3 km/h 25.7 km/h 91 % 0.0 mm 11 W/m2
18:55 11.3 °C 9.9 °C 1013.1 hPa West 8.0 km/h 25.7 km/h 91 % 0.0 mm 12 W/m2
19:00 11.3 °C 9.9 °C 1013.1 hPa SW 11.3 km/h 19.3 km/h 91 % 0.0 mm 14 W/m2
19:05 11.3 °C 10.0 °C 1013.1 hPa SW 3.2 km/h 19.3 km/h 92 % 0.0 mm 9 W/m2
19:10 11.3 °C 10.0 °C 1013.1 hPa SW 14.5 km/h 20.9 km/h 92 % 0.0 mm 7 W/m2
19:15 11.3 °C 10.0 °C 1013.1 hPa WSW 17.7 km/h 22.5 km/h 92 % 0.0 mm 0 W/m2
19:20 11.3 °C 10.0 °C 1013.1 hPa SW 4.8 km/h 24.1 km/h 92 % 0.0 mm 0 W/m2
19:25 11.3 °C 10.0 °C 1013.1 hPa WSW 9.7 km/h 24.1 km/h 92 % 0.0 mm 0 W/m2
19:30 11.3 °C 10.0 °C 1013.1 hPa WSW 12.9 km/h 22.5 km/h 92 % 0.0 mm 0 W/m2
19:35 11.2 °C 10.1 °C 1013.1 hPa SW 9.7 km/h 20.9 km/h 93 % 0.0 mm 0 W/m2
19:40 11.2 °C 10.1 °C 1013.1 hPa WSW 6.4 km/h 30.6 km/h 93 % 0.0 mm 0 W/m2
19:45 11.2 °C 10.1 °C 1013.1 hPa SW 4.8 km/h 30.6 km/h 93 % 0.0 mm 0 W/m2
19:50 11.2 °C 10.1 °C 1013.1 hPa SW 11.3 km/h 24.1 km/h 93 % 0.0 mm 0 W/m2
19:55 11.2 °C 10.1 °C 1013.1 hPa West 11.3 km/h 24.1 km/h 93 % 0.0 mm 0 W/m2
20:00 11.1 °C 10.2 °C 1013.1 hPa WSW 6.4 km/h 24.1 km/h 94 % 0.0 mm 0 W/m2
20:10 11.1 °C 10.3 °C 1013.1 hPa SW 19.3 km/h 19.3 km/h 95 % 0.0 mm 0 W/m2
20:15 11.0 °C 10.2 °C 1013.1 hPa SW 4.8 km/h 19.3 km/h 95 % 0.0 mm 0 W/m2
20:25 11.0 °C 10.4 °C 1013.1 hPa SW 6.4 km/h 22.5 km/h 96 % 0.0 mm 0 W/m2
20:30 10.9 °C 10.3 °C 1013.1 hPa WSW 16.1 km/h 22.5 km/h 96 % 0.0 mm 0 W/m2
20:35 10.9 °C 10.3 °C 1013.1 hPa WSW 8.0 km/h 20.9 km/h 96 % 0.0 mm 0 W/m2
20:40 10.9 °C 10.3 °C 1012.8 hPa WSW 8.0 km/h 27.4 km/h 96 % 0.0 mm 0 W/m2
20:45 10.9 °C 10.3 °C 1013.1 hPa WSW 16.1 km/h 27.4 km/h 96 % 0.0 mm 0 W/m2
20:50 10.9 °C 10.3 °C 1013.1 hPa WNW 6.4 km/h 19.3 km/h 96 % 0.0 mm 0 W/m2
20:55 10.9 °C 10.3 °C 1013.1 hPa West 9.7 km/h 22.5 km/h 96 % 0.0 mm 0 W/m2
21:00 10.9 °C 10.3 °C 1013.1 hPa SSW 8.0 km/h 24.1 km/h 96 % 0.3 mm 0 W/m2
21:05 10.9 °C 10.3 °C 1013.1 hPa WSW 12.9 km/h 24.1 km/h 96 % 0.3 mm 0 W/m2
21:10 10.9 °C 10.3 °C 1013.1 hPa WSW 11.3 km/h 24.1 km/h 96 % 0.3 mm 0 W/m2
21:15 10.9 °C 10.5 °C 1013.1 hPa WSW 6.4 km/h 24.1 km/h 97 % 0.3 mm 0 W/m2
21:20 10.9 °C 10.5 °C 1013.1 hPa South 6.4 km/h 17.7 km/h 97 % 0.3 mm 0 W/m2
21:25 10.9 °C 10.5 °C 1013.1 hPa West 9.7 km/h 25.7 km/h 97 % 0.3 mm 0 W/m2
21:30 10.9 °C 10.5 °C 1013.1 hPa WNW 8.0 km/h 25.7 km/h 97 % 0.3 mm 0 W/m2
21:40 10.9 °C 10.5 °C 1013.1 hPa WSW 14.5 km/h 24.1 km/h 97 % 0.3 mm 0 W/m2
21:45 11.0 °C 10.5 °C 1013.1 hPa SW 12.9 km/h 25.7 km/h 97 % 0.3 mm 0 W/m2
21:50 11.0 °C 10.5 °C 1013.1 hPa WNW 17.7 km/h 25.7 km/h 97 % 0.3 mm 0 W/m2
21:55 11.0 °C 10.5 °C 1013.1 hPa WSW 12.9 km/h 24.1 km/h 97 % 0.3 mm 0 W/m2
22:00 11.0 °C 10.5 °C 1013.1 hPa West 4.8 km/h 24.1 km/h 97 % 0.0 mm 0 W/m2
22:10 11.1 °C 10.6 °C 1013.1 hPa West 8.0 km/h 25.7 km/h 97 % 0.0 mm 0 W/m2
22:15 11.1 °C 10.6 °C 1013.1 hPa SW 8.0 km/h 25.7 km/h 97 % 0.0 mm 0 W/m2
22:20 11.1 °C 10.6 °C 1013.1 hPa WSW 11.3 km/h 20.9 km/h 97 % 0.0 mm 0 W/m2
22:25 11.1 °C 10.6 °C 1013.1 hPa West 9.7 km/h 22.5 km/h 97 % 0.0 mm 0 W/m2
22:30 11.1 °C 10.7 °C 1013.1 hPa West 4.8 km/h 22.5 km/h 97 % 0.0 mm 0 W/m2
22:40 11.1 °C 10.7 °C 1013.1 hPa WNW 8.0 km/h 22.5 km/h 97 % 0.0 mm 0 W/m2
22:45 11.1 °C 10.7 °C 1013.1 hPa SW 6.4 km/h 24.1 km/h 97 % 0.0 mm 0 W/m2
22:50 11.1 °C 10.7 °C 1013.1 hPa West 8.0 km/h 25.7 km/h 97 % 0.0 mm 0 W/m2
23:00 11.1 °C 10.7 °C 1013.1 hPa WNW 12.9 km/h 24.1 km/h 97 % 0.0 mm 0 W/m2
23:05 11.1 °C 10.7 °C 1013.1 hPa WSW 6.4 km/h 24.1 km/h 97 % 0.0 mm 0 W/m2
23:10 11.1 °C 10.7 °C 1013.1 hPa WNW 4.8 km/h 22.5 km/h 97 % 0.0 mm 0 W/m2
23:15 11.1 °C 10.7 °C 1013.1 hPa WNW 9.7 km/h 20.9 km/h 97 % 0.0 mm 0 W/m2
23:20 11.1 °C 10.7 °C 1013.1 hPa NW 8.0 km/h 17.7 km/h 97 % 0.0 mm 0 W/m2
23:25 11.1 °C 10.6 °C 1013.1 hPa West 8.0 km/h 17.7 km/h 97 % 0.0 mm 0 W/m2
23:30 11.1 °C 10.6 °C 1013.1 hPa WNW 4.8 km/h 17.7 km/h 97 % 0.0 mm 0 W/m2
23:40 11.1 °C 10.6 °C 1013.1 hPa WNW 1.6 km/h 19.3 km/h 97 % 0.0 mm 0 W/m2
23:45 11.0 °C 10.5 °C 1013.1 hPa West 6.4 km/h 14.5 km/h 97 % 0.0 mm 0 W/m2
23:50 10.9 °C 10.5 °C 1013.1 hPa West 4.8 km/h 14.5 km/h 97 % 0.0 mm 0 W/m2
23:55 10.9 °C 10.4 °C 1013.1 hPa West 4.8 km/h 16.1 km/h 97 % 0.0 mm 0 W/m2
Avec l'autorisation de Weather Underground - 1.5 mb